This is the latest recevied weather packets stored in our database for station/object DH0GMA. If no packets are shown the sender has not sent any weather packets the latest 10 day(s).
| Time | Temp. | Humidity | Pressure | Rain* | Wind** | Luminosity | Snow |
|---|---|---|---|---|---|---|---|
| 1777979788 | 17.78° C | 68% | 1006.9 hPa | 0 mm | - | - | - |
| 1777979188 | 17.78° C | 69% | 1006.8 hPa | 0 mm | - | - | - |
| 1777978588 | 17.78° C | 67% | 1006.9 hPa | 0 mm | - | - | - |
| 1777977988 | 17.78° C | 70% | 1006.8 hPa | 0 mm | - | - | - |
| 1777977387 | 17.78° C | 71% | 1007 hPa | 0 mm | - | - | - |
| 1777976787 | 17.22° C | 71% | 1007 hPa | 0 mm | - | - | - |
| 1777976187 | 17.78° C | 71% | 1007 hPa | 0 mm | - | - | - |
| 1777975587 | 17.78° C | 72% | 1007.3 hPa | 0 mm | - | - | - |
| 1777974987 | 17.78° C | 70% | 1007.2 hPa | 0 mm | - | - | - |
| 1777974387 | 17.22° C | 72% | 1007.3 hPa | 0 mm | - | - | - |
| 1777973787 | 17.22° C | 72% | 1007.4 hPa | 0 mm | - | - | - |
| 1777973186 | 17.22° C | 72% | 1007.5 hPa | 0 mm | - | - | - |
| 1777972586 | 17.22° C | 72% | 1007.5 hPa | 0 mm | - | - | - |
| 1777971986 | 17.22° C | 73% | 1007.5 hPa | 0 mm | - | - | - |
| 1777971386 | 16.67° C | 72% | 1007.5 hPa | 0 mm | - | - | - |
| 1777970786 | 16.67° C | 72% | 1007.5 hPa | 0 mm | - | - | - |
| 1777970188 | 16.67° C | 73% | 1007.7 hPa | 0 mm | - | - | - |
| 1777969588 | 16.67° C | 73% | 1007.8 hPa | 0 mm | - | - | - |
| 1777968988 | 16.67° C | 73% | 1007.8 hPa | 0 mm | - | - | - |
| 1777968388 | 16.67° C | 74% | 1007.9 hPa | 0 mm | - | - | - |
| 1777967787 | 16.67° C | 75% | 1007.9 hPa | 0 mm | - | - | - |
| 1777967187 | 15° C | 78% | 1008 hPa | 0 mm | - | - | - |
| 1777966587 | 14.44° C | 80% | 1008.1 hPa | 0 mm | - | - | - |
| 1777965987 | 13.89° C | 81% | 1008.1 hPa | 0 mm | - | - | - |
| 1777965387 | 13.89° C | 80% | 1008.2 hPa | 0 mm | - | - | - |
* Rain latest hour (hover to see other rain measurements)
** Current wind speed in m/s (hover to see current wind gust speed)